Preview of NWS' New Version of Forecast
This preview is not operational and should not be used for support decisions.

Regional Weather Roundup (RWR)

Issued by National Weather Service (NWS)

                            
000
ASUS43 KDMX 180706
RWRIA 

WEATHER ROUNDUP FOR IOWA
NATIONAL WEATHER SERVICE DES MOINES IA
200 AM CDT MON MAR 18 2019

NOTE: "FAIR" INDICATES FEW OR NO CLOUDS BELOW 12,000 FEET WITH NO
SIGNIFICANT WEATHER AND/OR OBSTRUCTIONS TO VISIBILITY.

* - THESE STATIONS ARE NOT NWS STATIONS...THUS NOT UNDER NWS
QUALITY CONTROL.  THEY ALSO DO NOT REPORT WEATHER SUCH 
AS PRECIPITATION OR FOG.  

IAZ001>003-012>014-020>022-031>034-043>046-180800-
   NORTHWEST IOWA
  
CITY           SKY/WX    TMP DP  RH WIND       PRES   REMARKS
CARROLL *      CLEAR     32  30  93 NW8       30.40R WCI  25          
CHEROKEE *     CLEAR     29  28  98 CALM      30.41S                  
DENISON *      CLEAR     28  27  93 CALM      30.42S                  
LE MARS *      CLEAR     28  28 100 CALM      30.43R                  
SHELDON *      CLEAR     28  28 100 NW7       30.40R WCI  21          
SIOUX CITY     CLEAR     29  27  92 NW9       30.44R WCI  20          
SPENCER        CLEAR     28  25  88 NW7       30.39  WCI  21          
STORM LAKE *   CLEAR     28  28 100 NW8       30.36S WCI  20          
$$
 
IAZ055>058-069>071-079>083-090>094-180800-
   SOUTHWEST IOWA
  
CITY           SKY/WX    TMP DP  RH WIND       PRES   REMARKS
ATLANTIC *     CLEAR     28  28 100 CALM      30.40R                  
AUDUBON *      CLEAR     27  23  86 CALM      30.40S                  
CLARINDA *     PTCLDY    28  28 100 CALM      30.42S                  
COUNCIL BLFS * CLEAR     32  32 100 N8        30.41R WCI  25          
CRESTON *      PTCLDY    30  28  93 CALM      30.38R                  
HARLAN  *      CLEAR     30  28  93 N7        30.40S WCI  23          
LAMONI         CLEAR     32  25  75 NW3       30.38R                  
RED OAK *      CLEAR     28  28 100 N3        30.41R                  
SHENANDOAH *     N/A    N/A N/A N/A MISG        N/A                   
$$
 
IAZ047>049-059>061-072>074-084-180800-
   CENTRAL IOWA
  
CITY           SKY/WX    TMP DP  RH WIND       PRES   REMARKS
AMES           CLEAR     31  27  85 NW7       30.38R WCI  24          
ANKENY *       CLEAR     32  28  86 NW7       30.40R WCI  26          
BOONE *        CLEAR     32  32 100 NW8       30.37R WCI  25          
CHARITON *     CLEAR     28  28 100 W6        30.38R WCI  22          
DES MOINES     CLEAR     29  27  92 W5        30.39R WCI  24          
GRINNELL*      PTCLDY    28  28  97 W3        30.37S                  
KNOXVILLE *    CLEAR     28  28 100 W6        30.38R WCI  22          
MARSHALLTOWN   CLEAR     28  27  96 NW6       30.36R WCI  22          
NEWTON *       CLEAR     28  28 100 W6        30.37S FOG     WCI  22  
PELLA *        CLEAR     28  26  95 CALM      30.39S                  
PERRY *        FAIR      31  31  99 NW6       30.39S WCI  25          
$$
 
IAZ004>006-015-016-023>025-035-036-180800-
   NORTH CENTRAL IOWA
  
CITY           SKY/WX    TMP DP  RH WIND       PRES   REMARKS
ALGONA *       CLEAR     30  30 100 NW10      30.36R WCI  21          
CLARION *      CLEAR     30  30 100 NW9       30.38R WCI  22          
ESTHERVILLE    CLEAR     28  25  88 NW10      30.38R WCI  19          
FORT DODGE *   CLEAR     27  26  96 CALM      30.39R                  
MASON CITY     CLEAR     28  27  96 NW12      30.37R WCI  18          
FOREST CITY *  FAIR      30  30 100 NW7         N/A  WCI  23          
IOWA FALLS *   FAIR      31  29  94 NW6       30.37S WCI  25          
$$

IAZ007>011-017>019-026>030-037>042-050>054-066-180800-
   NORTHEAST IOWA
  
CITY           SKY/WX    TMP DP  RH WIND       PRES   REMARKS
CEDAR RAPIDS   FAIR      25  25 100 CALM      30.35S FOG              
CHARLES CITY * FAIR      27  27 100 W6        30.35R WCI  20          
CLINTON *      FAIR      26  24  92 CALM      30.37R                  
DECORAH *      FAIR      30  30 100 W3        30.32R                  
DUBUQUE        CLOUDY    31  26  82 W3        30.33S                  
OELWEIN *      FAIR      27  27 100 NW7       30.35R WCI  19          
WATERLOO       FAIR      31  28  89 NW6       30.36R WCI  25          
$$
 
IAZ064-065-067-068-078-180800-
   EAST CENTRAL IOWA
  
CITY           SKY/WX    TMP DP  RH WIND       PRES   REMARKS
DAVENPORT      FAIR      29  26  89 SW5       30.38S WCI  24          
IOWA CITY      FAIR      26  24  92 CALM      30.39R                  
MT. PLEASANT * CLEAR     28  28 100 CALM      30.38S FOG              
MUSCATINE *    FAIR      28  27  93 CALM      30.39S                  
QUAD CITIES    FAIR      30  26  85 CALM      30.37R                  
$$
 
IAZ062-063-075>077-085>089-095>099-180800-
   SOUTHEAST IOWA
  
CITY           SKY/WX    TMP DP  RH WIND       PRES   REMARKS
BURLINGTON     CLEAR     28  24  85 N7        30.37S WCI  21          
FAIRFIELD *    CLEAR     25  25 100 SW5       30.37R FOG     WCI  19  
FORT MADISON * CLEAR     30  28  93 CALM      30.39R                  
KEOKUK *       CLEAR     30  28  93 CALM      30.38R                  
OSKALOOSA *    FAIR      28  27  96 W6        30.38S WCI  21          
CENTERVILLE *  FAIR      28  28 100 CALM      30.39S                  
OTTUMWA        CLEAR     27  24  89 W3        30.37S                  
WASHINGTON *   CLEAR     28  28 100 CALM      30.38S FOG              
$$

ABBREVIATIONS USED IN REMARKS
   TC - TEMPERATURES IN CELSIUS
  WCI - WIND CHILL INDEX
   HX - HEAT INDEX
  VSB - VISIBILITY  
$$